[[{"header":{"parameterUnit":"m.s-1","parameterCategory":2,"la1":30.2991,"la2":30.254,"lo1":-89.0895,"lo2":-89.0444,"dy":0.0017,"dx":0.0017,"nx":28,"ny":28,"refTime":"2024-07-08T03:00:00:Z","depth":"0","parameterNumber":2,"parameterNumberName":"U-component_of_CURRENTS"},"data":[0,0,0,0,0,0,0,0,0,0,0,0,0,0,0,0,0,0,0,0,0,0,0,0,0,0,0,0,0,0,0,0,0,0,0,0,0,0,0,0,0,0,0,0,0,0,0,0,0,0,0,0,0,0,0,0,0,0,0.1209,0.121,0,0.1217,0.1217,0.1217,0.1244,0.1245,0.1246,0.1247,0.1224,0.1223,0.1222,0,0,0,0,0,0,0,0,0,0,0,0,0,0.1227,0.1226,0.1209,0.121,0.121,0.1217,0.1217,0.1217,0.1244,0.1245,0.1246,0.1247,0.1225,0.1223,0.1222,0,0,0,0,0,0,0,0,0,0,0,0,0,0.1224,0.1226,0.1209,0.1226,0.1228,0.1217,0.1217,0.1217,0.1244,0.1245,0.1246,0.1247,0.1225,0.1223,0.1221,0.1185,0,0,0.1215,0.1214,0,0,0,0,0,0,0,0,0.1224,0.1223,0.1223,0.1225,0.1227,0.1233,0.1216,0.1206,0.1244,0.1235,0.1247,0.1248,0.1225,0.1223,0.1219,0.1184,0.1183,0.1215,0.1214,0.1213,0.1212,0,0,0,0,0,0,0,0.1224,0.1223,0.121,0.1223,0.1225,0.1236,0.1237,0.1214,0.1221,0.1236,0.1239,0.1243,0.1225,0.1221,0.1219,0.1182,0.1215,0.1213,0.1212,0.1211,0.1235,0.1237,0,0,0,0,0,0,0.1225,0.1222,0.121,0.1211,0.1231,0.1235,0.1236,0.1228,0.1222,0.1223,0.1242,0.1244,0.1224,0.1221,0.1218,0.1301,0.1213,0.1211,0.121,0.1234,0.1236,0.1238,0,0,0,0,0,0,0.1225,0.1223,0.121,0.1219,0.1219,0.1234,0.1225,0.1228,0.1235,0.1227,0.1227,0.1248,0.1225,0.1221,0.123,0.1296,0.121,0.1208,0.1231,0.1234,0.1237,0.1386,0,0,0,0,0,0,0.1225,0.1223,0.1216,0.1219,0.1218,0.1222,0.1224,0.1227,0.1236,0.1239,0.1232,0.1231,0.1225,0.1233,0.1228,0.1291,0.1207,0.1229,0.1233,0.1236,0.1378,0.1393,0.1406,0,0,0,0,0,0.1226,0.1219,0.1215,0.1214,0.1208,0.1223,0.1224,0.1237,0.1235,0.1246,0.1251,0.1232,0.1253,0.1233,0.1226,0.1291,0.1227,0.1232,0.1236,0.1372,0.139,0.1406,0,0,0,0,0,0,0.1229,0.1221,0.1218,0.1209,0.1222,0.1229,0.1238,0.1238,0.1246,0.1254,0.124,0.1239,0.1274,0.1249,0.1227,0.1307,0.1242,0.1245,0.1348,0.1365,0.1378,0.1424,0.1205,0,0,0,0,0,0.1222,0.121,0.1217,0.1211,0.122,0.1225,0.1231,0.1242,0.1251,0.1256,0.1251,0.1257,0.1281,0.1296,0.1291,0.1322,0.1358,0.1363,0.1376,0.1388,0.1421,0.1532,0.1561,0.1252,0.1252,0.1251,0,0,0.1221,0.1215,0.1209,0.121,0.122,0.1261,0.1232,0.1252,0.1294,0.125,0.1294,0.1288,0.1293,0.1347,0.1361,0.134,0.1496,0.1394,0.1404,0.1431,0.154,0.1571,0.1598,0.1254,0.1254,0.1253,0,0,0.1238,0.1212,0.1225,0.125,0.1272,0.1277,0.1286,0.13,0.1315,0.1347,0.1347,0.1394,0.1387,0.1444,0.1465,0.1545,0.1552,0.1528,0.1655,0.1762,0.179,0.1815,0.1915,0.1947,0.1552,0.1552,0.1552,0,0.1243,0.1258,0.1234,0.1281,0.1308,0.1294,0.1344,0.1363,0.1379,0.141,0.1381,0.1458,0.1456,0.1577,0.1621,0.1585,0.1634,0.1596,0.1786,0.1811,0.1834,0.193,0.1964,0.156,0.1559,0.1558,0.1558,0,0.1312,0.1317,0.1334,0.1382,0.1405,0.1441,0.1471,0.1495,0.1499,0.153,0.1613,0.1628,0.1684,0.1701,0.1692,0.1857,0.1836,0.1781,0.1755,0.1875,0.1967,0.2,0.1571,0.1568,0.1566,0.1564,0,0,0.1348,0.1371,0.1383,0.1401,0.1462,0.148,0.156,0.1624,0.1688,0.1721,0.182,0.1894,0.1897,0.1923,0.1924,0.2038,0.2247,0.1994,0.1996,0.2113,0.2496,0.246,0.2491,0.2227,0.2233,0.2238,0.2502,0,0.1415,0.1477,0.1488,0.1555,0.1589,0.1613,0.1682,0.1745,0.1792,0.1879,0.1944,0.202,0.1982,0.2021,0.2135,0.2198,0.2337,0.2181,0.2344,0.235,0.232,0.253,0.2451,0.2678,0.2534,0.2539,0.2543,0,0.1516,0.1523,0.1585,0.1615,0.1637,0.1681,0.178,0.1846,0.1978,0.2024,0.2136,0.2159,0.2328,0.2261,0.2502,0.2399,0.2479,0.2538,0.2548,0.2489,0.2376,0.2529,0.2742,0.2679,0.2593,0.2589,0.2585,0,0.1551,0.1603,0.1628,0.1655,0.1698,0.1731,0.1771,0.1893,0.1968,0.2126,0.2212,0.2362,0.2454,0.2582,0.2681,0.2611,0.2942,0.2844,0.2905,0.2902,0.2857,0.2839,0.3048,0.3063,0.3062,0.3061,0.3061,0,0.1619,0.1644,0.1635,0.1649,0.17,0.1741,0.1834,0.1911,0.2055,0.2171,0.2279,0.2405,0.2544,0.2709,0.2779,0.2961,0.3024,0.3,0.2999,0.2903,0.2887,0.2839,0.2785,0.3071,0.3069,0.3067,0.3065,0,0.165,0.165,0.1676,0.1695,0.1707,0.1748,0.1844,0.1915,0.2067,0.2231,0.2288,0.2497,0.2703,0.2844,0.3072,0.3097,0.3183,0.3298,0.3173,0.3152,0.3094,0.3049,0.3102,0.3015,0.3424,0.3425,0.3426,0,0.1667,0.1678,0.1692,0.1699,0.1695,0.1752,0.1789,0.1911,0.1994,0.2274,0.2347,0.2607,0.2756,0.3092,0.3197,0.3374,0.326,0.3407,0.3262,0.3161,0.3111,0.2904,0.281,0.3274,0.3274,0.3273,0.3273,0,0.1684,0.1687,0.1692,0.1711,0.1722,0.1759,0.182,0.1879,0.204,0.2188,0.2396,0.2547,0.2867,0.3019,0.3262,0.3347,0.3235,0.3403,0.3356,0.3095,0.2832,0.272,0.3014,0.3271,0.3271,0.3271,0.3271,0.3271,0.1691,0.1712,0.1714,0.1737,0.1744,0.1758,0.1784,0.1851,0.1974,0.2167,0.2333,0.2536,0.2846,0.3157,0.3203,0.3294,0.3212,0.3269,0.3256,0.3079,0.29,0.3187,0.3379,0.338,0.3381,0.3381,0.3382,0,0.1685,0.1714,0.174,0.1754,0.1747,0.1755,0.1798,0.1812,0.1896,0.2083,0.2243,0.256,0.2772,0.2989,0.3213,0.3175,0.2975,0.3143,0.2862,0.28,0.3151,0.3047,0.3105,0.3105,0.3105,0.3105,0.3105,0.3105,0.1682,0.1712,0.1739,0.1747,0.1742,0.1727,0.1729,0.1749,0.1854,0.2008,0.2178,0.2351,0.2744,0.305,0.312,0.3072,0.2844,0.2746,0.2704,0.2986,0.2994,0.3002,0.2894,0.2919,0.2919,0.2216,0.2212,0.2208]},{"header":{"parameterUnit":"m.s-1","parameterCategory":2,"la1":30.2991,"la2":30.254,"lo1":-89.0895,"lo2":-89.0444,"dy":0.0017,"dx":0.0017,"nx":28,"ny":28,"refTime":"2024-07-08T03:00:00:Z","depth":"0","parameterNumber":3,"parameterNumberName":"V-component_of_CURRENTS"},"data":[0,0,0,0,0,0,0,0,0,0,0,0,0,0,0,0,0,0,0,0,0,0,0,0,0,0,0,0,0,0,0,0,0,0,0,0,0,0,0,0,0,0,0,0,0,0,0,0,0,0,0,0,0,0,0,0,0,0,0.0172,0.0171,0,0.0071,0.007,0.0068,-0.0001,-0.0001,-0.0002,-0.0002,-0.0156,-0.0159,-0.0163,0,0,0,0,0,0,0,0,0,0,0,0,0,0.0302,0.03,0.0172,0.0171,0.017,0.0071,0.007,0.0068,-0.0001,-0.0001,-0.0002,-0.0003,-0.0155,-0.0159,-0.0163,0,0,0,0,0,0,0,0,0,0,0,0,0,0.0227,0.03,0.0173,0.0124,0.0119,0.0071,0.0069,0.0068,-0.0001,-0.0001,-0.0002,-0.0003,-0.0153,-0.0159,-0.0164,-0.0184,0,0,-0.0181,-0.0183,0,0,0,0,0,0,0,0,0.0232,0.0223,0.0132,0.0127,0.0121,0.0047,0.0059,-0.0019,-0.0001,0.0044,-0.0002,-0.0003,-0.0092,-0.0102,-0.012,-0.0192,-0.0198,-0.0181,-0.0185,-0.0187,-0.0189,0,0,0,0,0,0,0,0.0237,0.0227,0.0132,0.0131,0.0124,0.0106,0.0094,0.0044,-0.002,0.004,0.0035,0.0025,-0.0095,-0.0115,-0.0124,-0.02,-0.0181,-0.0186,-0.0189,-0.0192,-0.0345,-0.0345,0,0,0,0,0,0,0.0251,0.0231,0.0135,0.0129,0.0177,0.0104,0.0091,0.0071,-0.0019,-0.0033,0.0025,0.0022,-0.0105,-0.0118,-0.013,-0.0171,-0.0187,-0.0192,-0.0195,-0.0344,-0.0345,-0.0346,0,0,0,0,0,0,0.0254,0.0243,0.0139,0.0179,0.0164,0.0103,0.0081,0.007,0.0045,-0.0029,-0.0044,0.0012,-0.0106,-0.0122,-0.0192,-0.0178,-0.0195,-0.02,-0.0343,-0.0344,-0.0345,-0.0247,0,0,0,0,0,0,0.0258,0.0245,0.0239,0.018,0.0163,0.0116,0.0081,0.0068,0.0041,0.0035,-0.0045,-0.006,-0.0108,-0.0184,-0.0198,-0.0185,-0.0204,-0.0342,-0.0344,-0.0345,-0.0249,-0.0244,-0.024,0,0,0,0,0,0.0263,0.0261,0.0239,0.0228,0.0155,0.0117,0.0107,0.006,0.0041,0.0035,-0.0034,-0.0058,-0.0203,-0.0189,-0.0205,-0.0194,-0.0341,-0.0343,-0.0345,-0.0251,-0.0245,-0.0241,0,0,0,0,0,0,0.0315,0.0252,0.0227,0.0205,0.0166,0.0105,0.0096,0.0065,0.0008,-0.0005,-0.0074,-0.0094,-0.0151,-0.0193,-0.0177,-0.0247,-0.0273,-0.0278,-0.0197,-0.0192,-0.0188,-0.0123,-0.0208,0,0,0,0,0,0.0325,0.0305,0.0245,0.0229,0.021,0.0154,0.0134,0.0099,0.0041,0.0016,-0.0039,-0.0107,-0.0169,-0.0197,-0.026,-0.0295,-0.0301,-0.03,-0.0295,-0.0291,-0.0252,-0.0265,-0.0256,-0.0351,-0.0351,-0.0351,0,0,0.0337,0.0305,0.0291,0.024,0.0204,0.0184,0.014,0.0108,0.0096,0.0007,-0.0028,-0.0099,-0.018,-0.0226,-0.0253,-0.0257,-0.0271,-0.0293,-0.0288,-0.0251,-0.0265,-0.0255,-0.0247,-0.0353,-0.0352,-0.0352,0,0,0.0359,0.0327,0.0314,0.0291,0.0242,0.0208,0.0202,0.014,0.0117,0.0065,-0.0002,-0.0056,-0.0152,-0.019,-0.0227,-0.0236,-0.0256,-0.0268,-0.0179,-0.0192,-0.0183,-0.0175,-0.017,-0.0162,-0.0254,-0.0253,-0.0253,0,0.0374,0.0355,0.0309,0.0299,0.0293,0.0224,0.0222,0.0188,0.0113,0.0113,0.0062,-0.0047,-0.0125,-0.015,-0.0163,-0.0219,-0.0226,-0.0186,-0.018,-0.0172,-0.0166,-0.0163,-0.0155,-0.0249,-0.0249,-0.025,-0.025,0,0.0389,0.0376,0.0373,0.0338,0.0327,0.0314,0.0268,0.0247,0.0206,0.0182,0.0145,0.0042,-0.0009,-0.0053,-0.0117,-0.0105,-0.0126,-0.0178,-0.0177,-0.0149,-0.015,-0.0143,-0.0242,-0.0244,-0.0245,-0.0247,0,0,0.0412,0.0385,0.0387,0.0394,0.0352,0.035,0.0335,0.0323,0.0347,0.0268,0.03,0.0181,0.0149,0.0106,0.0028,0.0016,0.0033,-0.0049,-0.0052,-0.0014,0.0025,0.0018,0.0023,-0.0015,-0.0014,-0.0013,0.0007,0,0.0435,0.0445,0.0426,0.0448,0.0449,0.0415,0.0429,0.0415,0.0391,0.0403,0.0329,0.0312,0.0204,0.0185,0.0153,0.0059,0.0054,0.0035,-0.0033,-0.0034,-0.0019,0.0032,0.0044,0.0064,0.0013,0.0014,0.0015,0,0.0454,0.0465,0.0487,0.0524,0.0527,0.0537,0.0575,0.0582,0.0581,0.0572,0.055,0.0488,0.0452,0.0349,0.0257,0.025,0.0157,0.0088,0.0086,0.006,-0.0029,0.0022,0.0077,-0.0077,0.0024,0.0023,0.0023,0,0.0496,0.0516,0.0547,0.0552,0.057,0.0595,0.062,0.0636,0.0684,0.0694,0.0732,0.0661,0.0639,0.0524,0.0352,0.0311,0.0262,0.0178,0.0098,0.0096,0.0088,0.0083,0.0018,0.0138,0.0138,0.0138,0.0138,0,0.0524,0.0553,0.0575,0.0587,0.0671,0.0671,0.0763,0.0775,0.0832,0.092,0.0837,0.0888,0.0682,0.0608,0.0438,0.0305,0.0325,0.0152,0.0112,0.0118,0.0116,-0.0036,-0.0114,0.0139,0.0139,0.0139,0.0139,0,0.055,0.055,0.0598,0.0646,0.0677,0.0744,0.0859,0.0932,0.098,0.1089,0.1104,0.107,0.0981,0.0778,0.0595,0.0435,0.0226,0.0233,0.0264,0.0228,0.0004,-0.0069,-0.0105,-0.0151,0.0168,0.0168,0.0168,0,0.0556,0.0575,0.0651,0.0706,0.073,0.0833,0.0912,0.0989,0.1079,0.121,0.1275,0.1235,0.1217,0.0972,0.0675,0.0419,0.0258,0.0264,0.0179,0.0034,-0.0078,-0.0117,-0.0156,0.0202,0.0202,0.0202,0.0203,0,0.0582,0.0605,0.0654,0.0767,0.0852,0.0977,0.1098,0.1189,0.1298,0.1391,0.1511,0.1521,0.1312,0.1061,0.0715,0.053,0.0191,0.0263,0.0101,-0.0041,-0.0072,-0.015,0.0149,0.0205,0.0205,0.0205,0.0205,0.0205,0.0605,0.0663,0.0731,0.0848,0.0957,0.1109,0.1226,0.1345,0.1497,0.1648,0.1649,0.1691,0.1386,0.0926,0.0652,0.0193,0.0206,0.0036,-0.0033,-0.0053,-0.0113,0.0211,0.0219,0.0219,0.0219,0.0218,0.0218,0,0.0633,0.0709,0.0819,0.0962,0.1099,0.1152,0.1348,0.1474,0.1638,0.175,0.1821,0.1719,0.1279,0.0867,0.026,-0.0062,-0.0165,-0.0228,-0.03,-0.0323,-0.0049,-0.0067,-0.0106,-0.0106,-0.0106,-0.0106,-0.0106,-0.0106,0.0641,0.0752,0.0825,0.1051,0.117,0.1369,0.1486,0.1655,0.1786,0.1943,0.1987,0.2014,0.18,0.0604,-0.015,-0.0339,-0.056,-0.0584,-0.0686,-0.0548,-0.053,-0.0513,-0.0551,-0.0691,-0.0691,-0.092,-0.0923,-0.0925]}],[{"header":{"parameterUnit":"m.s-1","parameterCategory":2,"la1":30.2991,"la2":30.254,"lo1":-89.0895,"lo2":-89.0444,"dy":0.0017,"dx":0.0017,"nx":28,"ny":28,"refTime":"2024-07-08T03:00:00:Z","depth":"2","parameterNumber":2,"parameterNumberName":"U-component_of_CURRENTS"},"data":[0,0,0,0,0,0,0,0,0,0,0,0,0,0,0,0,0,0,0,0,0,0,0,0,0,0,0,0,0,0,0,0,0,0,0,0,0,0,0,0,0,0,0,0,0,0,0,0,0,0,0,0,0,0,0,0,0,0,0.1092,0.1092,0,0.1103,0.1103,0.1103,0.1136,0.1137,0.1138,0.1138,0.1119,0.1117,0.1116,0,0,0,0,0,0,0,0,0,0,0,0,0,0.1099,0.1098,0.1092,0.1092,0.1092,0.1103,0.1103,0.1103,0.1136,0.1137,0.1138,0.1139,0.1119,0.1117,0.1116,0,0,0,0,0,0,0,0,0,0,0,0,0,0.1099,0.1098,0.1092,0.1112,0.1114,0.1103,0.1103,0.1103,0.1135,0.1137,0.1138,0.1139,0.112,0.1118,0.1115,0.1074,0,0,0.1109,0.1108,0,0,0,0,0,0,0,0,0.1099,0.1099,0.1108,0.111,0.1113,0.1122,0.1099,0.1093,0.1135,0.1125,0.1138,0.114,0.1117,0.1115,0.1111,0.1073,0.1073,0.1109,0.1108,0.1107,0.1106,0,0,0,0,0,0,0,0.1099,0.1098,0.1094,0.1109,0.1111,0.1121,0.1122,0.1098,0.111,0.1126,0.1129,0.1133,0.1118,0.1113,0.1111,0.1072,0.1109,0.1107,0.1106,0.1105,0.1124,0.1126,0,0,0,0,0,0,0.1101,0.1098,0.1093,0.1094,0.1112,0.112,0.1121,0.1115,0.1111,0.1113,0.1132,0.1135,0.1116,0.1114,0.111,0.1194,0.1107,0.1105,0.1103,0.1122,0.1125,0.1126,0,0,0,0,0,0,0.1101,0.11,0.1093,0.1099,0.11,0.1118,0.1112,0.1115,0.1124,0.1117,0.1118,0.114,0.1117,0.1113,0.1122,0.1189,0.1104,0.1102,0.112,0.1123,0.1126,0.1276,0,0,0,0,0,0,0.1101,0.1099,0.1094,0.1099,0.1099,0.1104,0.1111,0.1114,0.1126,0.1129,0.1124,0.1123,0.1118,0.1125,0.112,0.1184,0.11,0.1118,0.1122,0.1125,0.1269,0.1284,0.1296,0,0,0,0,0,0.1101,0.1094,0.1093,0.1093,0.1092,0.1105,0.1106,0.1123,0.1125,0.1134,0.1141,0.1124,0.1143,0.1124,0.1117,0.1183,0.1116,0.1121,0.1124,0.1263,0.1281,0.1296,0,0,0,0,0,0,0.1099,0.1097,0.1097,0.1091,0.1104,0.1112,0.1122,0.1124,0.1133,0.1143,0.113,0.113,0.1163,0.1139,0.1118,0.1197,0.1132,0.1135,0.124,0.1256,0.127,0.132,0.1098,0,0,0,0,0,0.1093,0.1084,0.1094,0.1089,0.11,0.1108,0.1113,0.1128,0.1137,0.1143,0.114,0.1147,0.1169,0.1185,0.1179,0.121,0.1244,0.1251,0.1265,0.1276,0.1312,0.1408,0.1435,0.114,0.114,0.1139,0,0,0.109,0.1088,0.1083,0.1088,0.11,0.1143,0.1115,0.1137,0.1182,0.1136,0.1185,0.1177,0.1181,0.1234,0.1249,0.1229,0.1382,0.1282,0.1292,0.1322,0.1415,0.1445,0.1471,0.1142,0.1142,0.1141,0,0,0.1105,0.1083,0.1099,0.1127,0.1152,0.1159,0.1169,0.1185,0.1203,0.1236,0.1236,0.1282,0.1274,0.1332,0.1352,0.143,0.1437,0.1412,0.1544,0.1637,0.1663,0.1687,0.1795,0.1827,0.1438,0.1439,0.1439,0,0.1109,0.1128,0.1107,0.1158,0.1189,0.1176,0.1229,0.125,0.1269,0.1298,0.1272,0.1346,0.1344,0.1464,0.1509,0.1471,0.1517,0.1486,0.1661,0.1684,0.1706,0.1811,0.1844,0.1446,0.1446,0.1445,0.1444,0,0.1178,0.1189,0.1207,0.1263,0.1288,0.1326,0.1361,0.1387,0.1392,0.1423,0.1505,0.1518,0.1573,0.159,0.1582,0.174,0.1722,0.1655,0.163,0.1746,0.1847,0.188,0.1457,0.1455,0.1452,0.145,0,0,0.1212,0.1241,0.126,0.128,0.1348,0.1368,0.1452,0.1516,0.1581,0.1615,0.171,0.1788,0.1789,0.1815,0.1815,0.1921,0.2124,0.187,0.1871,0.1999,0.2355,0.2168,0.2185,0.2084,0.209,0.2094,0.2377,0,0.1279,0.1353,0.1366,0.1441,0.1477,0.1505,0.1578,0.1643,0.1686,0.1768,0.1833,0.1904,0.1876,0.1912,0.202,0.2069,0.2211,0.2056,0.2205,0.2212,0.2047,0.2216,0.1988,0.2203,0.2408,0.2413,0.2417,0,0.1382,0.1398,0.147,0.1502,0.1527,0.1575,0.1678,0.1746,0.1871,0.1916,0.2023,0.2039,0.2204,0.2138,0.2371,0.2267,0.2349,0.2402,0.2412,0.2209,0.2083,0.2112,0.2253,0.247,0.2466,0.2462,0.2458,0,0.1418,0.1481,0.1515,0.1545,0.1594,0.163,0.1671,0.1792,0.1868,0.2014,0.2097,0.2237,0.2325,0.2444,0.2531,0.2471,0.2773,0.2686,0.2625,0.2614,0.2436,0.2396,0.2904,0.2904,0.2903,0.2903,0.2902,0,0.1481,0.1519,0.1523,0.1544,0.1602,0.1645,0.1737,0.1816,0.1954,0.2067,0.2167,0.2289,0.2407,0.2552,0.2619,0.2719,0.2849,0.2707,0.2687,0.2477,0.244,0.2655,0.2622,0.2913,0.2911,0.2909,0.2907,0,0.1515,0.1526,0.1564,0.1594,0.1607,0.1658,0.1751,0.1819,0.1973,0.2132,0.2185,0.2383,0.2509,0.2615,0.2814,0.2824,0.2931,0.2944,0.2688,0.2629,0.2705,0.2676,0.2926,0.2922,0.2919,0.2916,0.2913,0,0.1528,0.155,0.1586,0.16,0.1602,0.1666,0.17,0.1819,0.1891,0.218,0.2243,0.2429,0.2444,0.2656,0.2692,0.277,0.2879,0.269,0.2513,0.2758,0.2716,0.2692,0.2669,0.2383,0.2377,0.2371,0.2367,0,0.1547,0.157,0.1589,0.1619,0.1633,0.1671,0.1723,0.1769,0.1927,0.2065,0.2256,0.2289,0.2393,0.2331,0.2396,0.2417,0.2625,0.2575,0.2976,0.2346,0.225,0.2204,0.2201,0.232,0.2324,0.2328,0.233,0.2332,0.1564,0.1595,0.1618,0.1651,0.1663,0.1665,0.1683,0.1712,0.1809,0.1958,0.2119,0.2145,0.2134,0.2038,0.2046,0.2126,0.2253,0.2263,0.228,0.2303,0.2123,0.2018,0.2016,0.2019,0.2022,0.2024,0.2026,0,0.1562,0.1607,0.1641,0.1671,0.1661,0.1673,0.1692,0.1666,0.1693,0.18,0.1902,0.1775,0.1667,0.1705,0.1714,0.1734,0.1719,0.1722,0.1721,0.1766,0.1807,0.1603,0.136,0.1358,0.1357,0.1355,0,0,0.1566,0.1587,0.1616,0.1635,0.1654,0.1627,0.1613,0.1554,0.1581,0.1538,0.1571,0.165,0.1646,0.1514,0.1475,0.1449,0.1601,0.1387,0.1911,0.1954,0.1994,0.2096,0.1827,0,0,0,0,0]},{"header":{"parameterUnit":"m.s-1","parameterCategory":2,"la1":30.2991,"la2":30.254,"lo1":-89.0895,"lo2":-89.0444,"dy":0.0017,"dx":0.0017,"nx":28,"ny":28,"refTime":"2024-07-08T03:00:00:Z","depth":"2","parameterNumber":3,"parameterNumberName":"V-component_of_CURRENTS"},"data":[0,0,0,0,0,0,0,0,0,0,0,0,0,0,0,0,0,0,0,0,0,0,0,0,0,0,0,0,0,0,0,0,0,0,0,0,0,0,0,0,0,0,0,0,0,0,0,0,0,0,0,0,0,0,0,0,0,0,0.0109,0.0108,0,0.001,0.0009,0.0007,-0.0057,-0.0058,-0.0058,-0.0059,-0.0206,-0.021,-0.0213,0,0,0,0,0,0,0,0,0,0,0,0,0,0.0236,0.0234,0.011,0.0108,0.0107,0.001,0.0008,0.0007,-0.0057,-0.0058,-0.0058,-0.0059,-0.0205,-0.0209,-0.0214,0,0,0,0,0,0,0,0,0,0,0,0,0,0.0162,0.0233,0.011,0.0064,0.0059,0.001,0.0008,0.0007,-0.0057,-0.0058,-0.0058,-0.0059,-0.0204,-0.0209,-0.0214,-0.0237,0,0,-0.0231,-0.0233,0,0,0,0,0,0,0,0,0.0167,0.0158,0.0072,0.0067,0.0061,-0.0011,-0.0001,-0.0077,-0.0057,-0.0014,-0.0059,-0.0059,-0.0145,-0.0155,-0.0173,-0.0244,-0.0251,-0.0231,-0.0235,-0.0237,-0.0239,0,0,0,0,0,0,0,0.0172,0.0162,0.0069,0.007,0.0064,0.0045,0.0034,-0.0016,-0.0077,-0.0018,-0.0023,-0.0032,-0.0148,-0.0167,-0.0177,-0.0253,-0.0231,-0.0236,-0.0239,-0.0242,-0.0396,-0.0397,0,0,0,0,0,0,0.0186,0.0166,0.0072,0.0066,0.0114,0.0044,0.0031,0.0012,-0.0075,-0.0088,-0.0032,-0.0035,-0.0158,-0.0171,-0.0183,-0.0225,-0.0237,-0.0242,-0.0245,-0.0395,-0.0396,-0.0397,0,0,0,0,0,0,0.0189,0.0178,0.0077,0.0115,0.0101,0.0042,0.0021,0.001,-0.0013,-0.0085,-0.01,-0.0044,-0.0159,-0.0175,-0.0244,-0.0231,-0.0245,-0.0249,-0.0394,-0.0395,-0.0396,-0.0304,0,0,0,0,0,0,0.0193,0.018,0.0175,0.0116,0.0099,0.0052,0.0021,0.0009,-0.0018,-0.0023,-0.0101,-0.0115,-0.0161,-0.0236,-0.025,-0.0239,-0.0254,-0.0393,-0.0395,-0.0396,-0.0306,-0.0302,-0.0299,0,0,0,0,0,0.0198,0.0194,0.0175,0.0164,0.0092,0.0053,0.0043,-0.0001,-0.0018,-0.0025,-0.0091,-0.0113,-0.0255,-0.0241,-0.0257,-0.0247,-0.0392,-0.0394,-0.0396,-0.0308,-0.0303,-0.0299,0,0,0,0,0,0,0.0246,0.0185,0.0163,0.0141,0.0102,0.0042,0.0032,0.0003,-0.0053,-0.0064,-0.013,-0.0149,-0.0206,-0.0247,-0.023,-0.0301,-0.0325,-0.033,-0.0253,-0.0249,-0.0245,-0.0179,-0.0258,0,0,0,0,0,0.0255,0.0236,0.0177,0.0162,0.0143,0.0089,0.0069,0.0036,-0.0021,-0.0045,-0.0098,-0.0164,-0.0225,-0.0252,-0.0315,-0.0351,-0.0357,-0.0356,-0.0353,-0.0349,-0.0309,-0.0333,-0.0326,-0.0403,-0.0403,-0.0403,0,0,0.0267,0.0235,0.0221,0.0171,0.0137,0.0117,0.0075,0.0043,0.0032,-0.0053,-0.0088,-0.0158,-0.0237,-0.0284,-0.0311,-0.0314,-0.0332,-0.0351,-0.0347,-0.0309,-0.0334,-0.0326,-0.0319,-0.0405,-0.0404,-0.0404,0,0,0.0285,0.0255,0.0242,0.022,0.0173,0.014,0.0134,0.0073,0.0051,-0.0,-0.0064,-0.0119,-0.0213,-0.0253,-0.0289,-0.0302,-0.032,-0.0332,-0.0246,-0.0271,-0.0263,-0.0256,-0.0246,-0.0239,-0.0319,-0.0318,-0.0318,0,0.0299,0.0282,0.0235,0.0227,0.0222,0.0155,0.0154,0.0119,0.0046,0.0044,-0.0003,-0.0113,-0.019,-0.0218,-0.0231,-0.0286,-0.0294,-0.0251,-0.026,-0.0254,-0.0248,-0.024,-0.0233,-0.0314,-0.0315,-0.0315,-0.0315,0,0.0312,0.0301,0.0298,0.0266,0.0254,0.0242,0.0197,0.0175,0.0136,0.0111,0.007,-0.003,-0.0082,-0.0126,-0.0187,-0.0185,-0.02,-0.0257,-0.0256,-0.0234,-0.0228,-0.0222,-0.0308,-0.031,-0.0311,-0.0312,0,0,0.0332,0.0308,0.0312,0.032,0.028,0.0277,0.0262,0.0246,0.0266,0.019,0.0215,0.0099,0.0068,0.0025,-0.0051,-0.0071,-0.0061,-0.0136,-0.0139,-0.0095,-0.0083,-0.0157,-0.0159,-0.0121,-0.012,-0.0119,-0.0088,0,0.0355,0.0368,0.035,0.0373,0.0374,0.0341,0.0354,0.0337,0.0308,0.0312,0.0238,0.0216,0.012,0.0099,0.0062,-0.0041,-0.0044,-0.0061,-0.0135,-0.0135,-0.0181,-0.0155,-0.0164,-0.0143,-0.0083,-0.0082,-0.0082,0,0.0373,0.0386,0.0412,0.0447,0.0451,0.046,0.0493,0.0498,0.0487,0.0475,0.0449,0.0382,0.034,0.0245,0.0147,0.014,0.0053,-0.0019,-0.0021,-0.0109,-0.0201,-0.0162,-0.0136,-0.0073,-0.0074,-0.0075,-0.0075,0,0.0414,0.0437,0.0472,0.0479,0.0495,0.0519,0.0542,0.055,0.0595,0.059,0.0625,0.0543,0.052,0.0399,0.0224,0.0191,0.0121,0.0046,-0.008,-0.0085,-0.0114,-0.0124,0.0008,0.0008,0.0008,0.0008,0.0008,0,0.0441,0.0474,0.05,0.0514,0.0597,0.0595,0.0681,0.069,0.0738,0.082,0.0731,0.0774,0.0555,0.0467,0.0299,0.0132,0.0177,-0.0034,-0.0081,-0.0086,-0.0094,-0.006,-0.0068,0.0009,0.0009,0.0009,0.0009,0,0.0469,0.0474,0.0525,0.0574,0.0603,0.0671,0.078,0.0845,0.0892,0.0992,0.1004,0.0956,0.0812,0.059,0.0387,0.0242,0.0074,0.0006,0.0027,-0.0019,-0.0122,-0.0127,-0.0111,-0.0113,-0.0115,-0.0117,-0.0118,0,0.0474,0.0497,0.058,0.0636,0.066,0.0762,0.0835,0.0906,0.0982,0.1114,0.1167,0.1077,0.0926,0.0616,0.0359,0.0062,0.0038,-0.0077,-0.0161,-0.0086,-0.0133,-0.0135,-0.0136,-0.0147,-0.0149,-0.015,-0.0151,0,0.0501,0.0532,0.0585,0.07,0.0782,0.0902,0.101,0.1086,0.1187,0.1268,0.1359,0.1244,0.0928,0.0583,0.0173,-0.0004,-0.0048,-0.0114,-0.0025,-0.014,-0.0126,-0.0171,-0.017,-0.0162,-0.0161,-0.016,-0.0159,-0.0159,0.0528,0.0589,0.0664,0.0782,0.0891,0.1026,0.1134,0.1211,0.1333,0.1425,0.1406,0.1259,0.0881,0.0291,0.0027,-0.0153,-0.0165,-0.0251,-0.0244,-0.0237,-0.0271,-0.0265,-0.0329,-0.0329,-0.0329,-0.0329,-0.0328,0,0.0555,0.0637,0.0749,0.0895,0.1028,0.1081,0.1249,0.1332,0.1435,0.1442,0.1432,0.1073,0.0611,0.0274,-0.0026,-0.0285,-0.028,-0.0344,-0.0283,-0.0273,-0.0264,-0.0296,-0.0362,-0.0362,-0.0362,-0.0362,0,0,0.0566,0.0665,0.0735,0.0965,0.1099,0.1286,0.1385,0.1466,0.1505,0.1464,0.1383,0.1117,0.0656,0.0421,0.0055,-0.0105,-0.0107,-0.0143,-0.0101,0.0023,0.0037,-0.0214,-0.0255,0,0,0,0,0]}],[{"header":{"parameterUnit":"m.s-1","parameterCategory":2,"la1":30.2991,"la2":30.254,"lo1":-89.0895,"lo2":-89.0444,"dy":0.0017,"dx":0.0017,"nx":28,"ny":28,"refTime":"2024-07-08T03:00:00:Z","depth":"4","parameterNumber":2,"parameterNumberName":"U-component_of_CURRENTS"},"data":[0,0,0,0,0,0,0,0,0,0,0,0,0,0,0,0,0,0,0,0,0,0,0,0,0,0,0,0,0,0,0,0,0,0,0,0,0,0,0,0,0,0,0,0,0,0,0,0,0,0,0,0,0,0,0,0,0,0,0.0253,0.0254,0,0.0289,0.0289,0.0289,0.0321,0.0323,0.0324,0.0325,0.0371,0.0371,0.0372,0,0,0,0,0,0,0,0,0,0,0,0,0,0.0083,0.0086,0.0253,0.0254,0.0255,0.0289,0.0289,0.0289,0.0321,0.0323,0.0324,0.0325,0.0371,0.0371,0.0372,0,0,0,0,0,0,0,0,0,0,0,0,0,0.0134,0.0087,0.0253,0.0282,0.0286,0.0289,0.0289,0.0289,0.0321,0.0323,0.0324,0.0326,0.0371,0.0371,0.0372,0.0338,0,0,0.0372,0.0372,0,0,0,0,0,0,0,0,0.0131,0.0139,0.0276,0.028,0.0284,0.031,0.0246,0.0309,0.032,0.0299,0.0325,0.0327,0.0356,0.0357,0.0348,0.034,0.0342,0.0372,0.0373,0.0373,0.0373,0,0,0,0,0,0,0,0.0128,0.0137,0.0259,0.0278,0.0283,0.025,0.0259,0.0257,0.0311,0.0301,0.0305,0.0322,0.0357,0.0348,0.035,0.0343,0.0372,0.0373,0.0373,0.0373,0.0357,0.0356,0,0,0,0,0,0,0.0146,0.0135,0.0258,0.0261,0.022,0.0252,0.0262,0.0293,0.0311,0.0317,0.032,0.0324,0.0347,0.035,0.0352,0.0376,0.0373,0.0373,0.0373,0.0357,0.0357,0.0356,0,0,0,0,0,0,0.0142,0.0157,0.0257,0.0204,0.0216,0.0255,0.0288,0.0293,0.0312,0.0327,0.0333,0.0339,0.0348,0.0351,0.0382,0.0376,0.0373,0.0373,0.0358,0.0357,0.0356,0.0384,0,0,0,0,0,0,0.0137,0.0155,0.0174,0.0206,0.022,0.0284,0.0288,0.0293,0.0322,0.0327,0.0344,0.0349,0.035,0.0382,0.0383,0.0376,0.0373,0.0359,0.0358,0.0357,0.0384,0.0384,0.0385,0,0,0,0,0,0.0131,0.0153,0.0175,0.019,0.0249,0.0285,0.0288,0.0314,0.0322,0.0335,0.0352,0.035,0.0375,0.0383,0.0383,0.0377,0.0359,0.0358,0.0357,0.0384,0.0384,0.0385,0,0,0,0,0,0,0.0093,0.016,0.0185,0.0229,0.0269,0.0295,0.0301,0.0324,0.0342,0.034,0.0357,0.0363,0.0384,0.0373,0.0382,0.0365,0.0359,0.0358,0.0379,0.038,0.038,0.037,0.0374,0,0,0,0,0,0.0095,0.0135,0.0188,0.0229,0.024,0.0271,0.0287,0.0307,0.0333,0.0343,0.0375,0.0377,0.037,0.0375,0.0378,0.0374,0.0392,0.0363,0.0363,0.0364,0.0353,0.0436,0.0445,0.0352,0.0352,0.0352,0,0,0.0093,0.0138,0.016,0.0224,0.0243,0.0209,0.0283,0.0309,0.0285,0.0343,0.0341,0.0392,0.0372,0.0375,0.038,0.0372,0.0388,0.0362,0.0363,0.0352,0.0436,0.0446,0.0455,0.0351,0.0351,0.0351,0,0,0.0069,0.0144,0.0137,0.0164,0.0205,0.0198,0.0211,0.0259,0.0289,0.0322,0.0333,0.039,0.0404,0.0387,0.0372,0.0369,0.0397,0.037,0.0359,0.0441,0.045,0.0459,0.0455,0.0463,0.0362,0.0362,0.0362,0,0.0065,0.0082,0.0142,0.0126,0.0148,0.0181,0.0159,0.0152,0.0216,0.0288,0.0328,0.039,0.0395,0.0359,0.0368,0.0369,0.0412,0.0365,0.0446,0.0455,0.0464,0.0458,0.0467,0.0363,0.0363,0.0363,0.0363,0,0.0011,0.003,0.0032,0.001,0.0017,0.0036,0.0033,0.0052,0.0119,0.0199,0.0289,0.0317,0.0411,0.0368,0.0372,0.0405,0.0413,0.0452,0.0455,0.0476,0.0466,0.0475,0.0365,0.0364,0.0364,0.0364,0,0,-0.0032,0.0001,-0.0024,-0.0008,-0.0008,-0.0013,-0.0064,-0.0016,0.0032,0.0113,0.0254,0.022,0.0393,0.0381,0.0395,0.0396,0.0486,0.0462,0.0466,0.0472,0.0638,0.0556,0.0557,0.0585,0.0587,0.0589,0.0594,0,-0.0085,-0.0131,-0.0102,-0.0158,-0.0165,-0.0121,-0.0143,-0.0098,0.0015,0.0163,0.0234,0.0375,0.0344,0.0459,0.047,0.0495,0.0519,0.0477,0.0602,0.0602,0.0544,0.0568,0.0597,0.0601,0.0603,0.0604,0.0606,0,-0.0177,-0.0179,-0.0216,-0.0158,-0.0156,-0.0185,-0.0131,-0.0109,0.0063,0.0206,0.0371,0.0518,0.0559,0.0584,0.0591,0.0592,0.065,0.0613,0.0616,0.0538,0.054,0.0583,0.0622,0.062,0.0619,0.0618,0.0617,0,-0.0261,-0.0262,-0.0273,-0.026,-0.0226,-0.0196,-0.0162,-0.0048,0.0037,0.0312,0.0414,0.0584,0.0673,0.0733,0.0737,0.0733,0.0738,0.0748,0.0681,0.0673,0.0734,0.0726,0.0813,0.0813,0.0813,0.0813,0.0813,0,-0.0302,-0.0324,-0.0293,-0.0297,-0.028,-0.0197,-0.0113,-0.0038,0.0167,0.0297,0.0496,0.0537,0.0733,0.0782,0.0799,0.0743,0.0829,0.0669,0.0686,0.0735,0.0727,0.0738,0.0729,0.0813,0.0813,0.0813,0.0813,0,-0.0369,-0.0359,-0.0348,-0.0306,-0.0306,-0.0258,-0.0131,-0.0016,0.0114,0.0277,0.0382,0.0558,0.0594,0.0681,0.0781,0.0774,0.0763,0.0749,0.0747,0.0765,0.0617,0.0609,0.066,0.0657,0.0655,0.0653,0.0652,0,-0.0387,-0.0393,-0.0391,-0.0371,-0.0329,-0.0262,-0.0188,-0.0029,0.01,0.0202,0.0287,0.0396,0.0497,0.0537,0.0616,0.0678,0.0676,0.0712,0.0684,0.0598,0.061,0.0605,0.0601,0.0649,0.0648,0.0648,0.0647,0,-0.0389,-0.0387,-0.0382,-0.0374,-0.0309,-0.0259,-0.0138,-0.0073,0.0127,0.0159,0.0281,0.0372,0.0394,0.0506,0.0605,0.0612,0.071,0.069,0.0694,0.0667,0.0586,0.0598,0.0596,0.064,0.0641,0.0642,0.0642,0,-0.038,-0.0367,-0.0364,-0.0337,-0.0283,-0.0202,-0.0166,-0.0013,0.0096,0.0248,0.0252,0.0302,0.041,0.0457,0.0483,0.056,0.0534,0.0579,0.0588,0.0596,0.0569,0.0456,0.0484,0,0,0,0,0,-0.0361,-0.0347,-0.0321,-0.0276,-0.0211,-0.0194,-0.0101,-0.0035,0.0066,0.0196,0.0266,0.031,0.0384,0.0374,0.0437,0.0353,0.0492,0.0416,0.0538,0.06,0.0608,0.058,0,0,0,0,0,0,-0.0342,-0.0334,-0.0318,-0.0224,-0.0177,-0.0097,-0.0034,0.003,0.0112,0.0199,0.0251,0.0297,0.0362,0.0369,0.0431,0.0432,0.0511,0.045,0.045,0.0595,0.0603,0.0609,0.0584,0,0,0,0,0]},{"header":{"parameterUnit":"m.s-1","parameterCategory":2,"la1":30.2991,"la2":30.254,"lo1":-89.0895,"lo2":-89.0444,"dy":0.0017,"dx":0.0017,"nx":28,"ny":28,"refTime":"2024-07-08T03:00:00:Z","depth":"4","parameterNumber":3,"parameterNumberName":"V-component_of_CURRENTS"},"data":[0,0,0,0,0,0,0,0,0,0,0,0,0,0,0,0,0,0,0,0,0,0,0,0,0,0,0,0,0,0,0,0,0,0,0,0,0,0,0,0,0,0,0,0,0,0,0,0,0,0,0,0,0,0,0,0,0,0,-0.0114,-0.0115,0,-0.0176,-0.0176,-0.0177,-0.0206,-0.0206,-0.0206,-0.0206,-0.0273,-0.0274,-0.0276,0,0,0,0,0,0,0,0,0,0,0,0,0,-0.0034,-0.0035,-0.0114,-0.0115,-0.0116,-0.0176,-0.0176,-0.0177,-0.0206,-0.0206,-0.0206,-0.0206,-0.0272,-0.0274,-0.0276,0,0,0,0,0,0,0,0,0,0,0,0,0,-0.0079,-0.0036,-0.0114,-0.0137,-0.014,-0.0175,-0.0176,-0.0177,-0.0206,-0.0206,-0.0206,-0.0206,-0.0271,-0.0274,-0.0277,-0.0293,0,0,-0.0285,-0.0286,0,0,0,0,0,0,0,0,-0.0077,-0.0082,-0.0133,-0.0136,-0.0139,-0.0183,-0.0173,-0.0216,-0.0206,-0.0181,-0.0206,-0.0206,-0.0243,-0.0248,-0.0259,-0.0296,-0.0299,-0.0285,-0.0287,-0.0288,-0.0288,0,0,0,0,0,0,0,-0.0073,-0.008,-0.0138,-0.0134,-0.0138,-0.0149,-0.0156,-0.0181,-0.0211,-0.0183,-0.0185,-0.0193,-0.0245,-0.0257,-0.0261,-0.03,-0.0285,-0.0287,-0.0289,-0.029,-0.0367,-0.0367,0,0,0,0,0,0,-0.0066,-0.0077,-0.0136,-0.014,-0.0108,-0.0151,-0.0158,-0.0169,-0.0211,-0.0217,-0.0193,-0.0194,-0.0252,-0.0258,-0.0264,-0.0312,-0.0288,-0.029,-0.0292,-0.0366,-0.0367,-0.0367,0,0,0,0,0,0,-0.0064,-0.0071,-0.0134,-0.011,-0.0119,-0.0152,-0.0164,-0.017,-0.0187,-0.0218,-0.0225,-0.0204,-0.0252,-0.026,-0.0295,-0.0313,-0.0291,-0.0294,-0.0366,-0.0366,-0.0367,-0.0391,0,0,0,0,0,0,-0.0062,-0.007,-0.0077,-0.0109,-0.012,-0.015,-0.0165,-0.0171,-0.0192,-0.0194,-0.023,-0.0236,-0.0253,-0.0291,-0.0298,-0.0317,-0.0296,-0.0365,-0.0366,-0.0367,-0.039,-0.0392,-0.0395,0,0,0,0,0,-0.0059,-0.0062,-0.0077,-0.0085,-0.0128,-0.015,-0.0156,-0.018,-0.0192,-0.0196,-0.0229,-0.0235,-0.0301,-0.0294,-0.0302,-0.0322,-0.0365,-0.0366,-0.0367,-0.0389,-0.0392,-0.0395,0,0,0,0,0,0,-0.0029,-0.0067,-0.0084,-0.0099,-0.0123,-0.0155,-0.0168,-0.0182,-0.0212,-0.0221,-0.0247,-0.0255,-0.0292,-0.03,-0.0292,-0.0344,-0.0331,-0.0334,-0.0345,-0.0349,-0.0351,-0.0381,-0.0298,0,0,0,0,0,-0.0027,-0.0045,-0.0077,-0.0092,-0.0106,-0.0139,-0.0153,-0.0169,-0.0199,-0.0212,-0.0235,-0.0265,-0.0301,-0.0319,-0.0343,-0.0375,-0.0399,-0.039,-0.0392,-0.0395,-0.0423,-0.0492,-0.0505,-0.037,-0.037,-0.037,0,0,-0.0027,-0.0045,-0.0059,-0.0087,-0.0115,-0.0131,-0.0148,-0.0172,-0.02,-0.0215,-0.0257,-0.0275,-0.0311,-0.0348,-0.0364,-0.0359,-0.0433,-0.0396,-0.0398,-0.0426,-0.0495,-0.0508,-0.052,-0.0371,-0.0371,-0.0371,0,0,-0.002,-0.0047,-0.0056,-0.0072,-0.0104,-0.0129,-0.0135,-0.0168,-0.0202,-0.0238,-0.0263,-0.0306,-0.0334,-0.0382,-0.0407,-0.0441,-0.0444,-0.0423,-0.0467,-0.0533,-0.0546,-0.0557,-0.0556,-0.0568,-0.0426,-0.0426,-0.0426,0,-0.002,-0.0037,-0.0061,-0.0065,-0.0095,-0.0126,-0.0149,-0.0182,-0.0221,-0.0267,-0.0251,-0.0341,-0.0365,-0.0451,-0.0458,-0.0454,-0.0459,-0.0453,-0.0539,-0.0551,-0.0563,-0.056,-0.0572,-0.0427,-0.0427,-0.0427,-0.0427,0,-0.0008,-0.0032,-0.004,-0.0068,-0.0093,-0.012,-0.0169,-0.0209,-0.0249,-0.0282,-0.0365,-0.0403,-0.0447,-0.0466,-0.0475,-0.0564,-0.0527,-0.0534,-0.0536,-0.0578,-0.0571,-0.0583,-0.0429,-0.0429,-0.0428,-0.0428,0,0,-0.0018,-0.0033,-0.0047,-0.0067,-0.0108,-0.0132,-0.0199,-0.028,-0.0332,-0.0374,-0.0439,-0.0522,-0.0518,-0.0548,-0.0562,-0.0642,-0.0707,-0.0616,-0.0619,-0.0623,-0.08,-0.0676,-0.0677,-0.0722,-0.0726,-0.0728,-0.0745,0,-0.0024,-0.0037,-0.0054,-0.0097,-0.0119,-0.0181,-0.0241,-0.0312,-0.0368,-0.0419,-0.0503,-0.0529,-0.0551,-0.0546,-0.0637,-0.0692,-0.0748,-0.0699,-0.0753,-0.0755,-0.0648,-0.0692,-0.0739,-0.0754,-0.0757,-0.0759,-0.0761,0,-0.0026,-0.004,-0.0073,-0.0139,-0.016,-0.0188,-0.0312,-0.0371,-0.0462,-0.0482,-0.0537,-0.0536,-0.0631,-0.0624,-0.0781,-0.0737,-0.0767,-0.0824,-0.0825,-0.0723,-0.0657,-0.0715,-0.0783,-0.0782,-0.078,-0.0778,-0.0777,0,-0.0026,-0.0073,-0.0109,-0.0122,-0.0181,-0.0241,-0.0306,-0.0404,-0.0451,-0.0498,-0.0502,-0.0584,-0.0603,-0.0705,-0.0754,-0.0766,-0.0908,-0.093,-0.0855,-0.0843,-0.0939,-0.0927,-0.1045,-0.1045,-0.1045,-0.1045,-0.1045,0,-0.0029,-0.0066,-0.0113,-0.0116,-0.0204,-0.0251,-0.0343,-0.0405,-0.0452,-0.0479,-0.0519,-0.0524,-0.0629,-0.0684,-0.0755,-0.0816,-0.0891,-0.0879,-0.0861,-0.0937,-0.0926,-0.0944,-0.0932,-0.1046,-0.1046,-0.1045,-0.1045,0,-0.0027,-0.0044,-0.0088,-0.0157,-0.019,-0.0264,-0.0344,-0.0382,-0.044,-0.0468,-0.0452,-0.0482,-0.0545,-0.063,-0.0754,-0.079,-0.087,-0.0859,-0.0877,-0.0857,-0.0764,-0.0753,-0.0821,-0.0817,-0.0814,-0.0811,-0.0809,0,-0.0031,-0.0044,-0.0113,-0.0157,-0.0194,-0.0287,-0.0332,-0.0369,-0.0375,-0.0436,-0.0422,-0.0454,-0.0475,-0.0569,-0.0658,-0.0751,-0.0765,-0.0779,-0.0854,-0.0776,-0.0752,-0.0746,-0.0739,-0.0804,-0.0803,-0.0802,-0.0801,0,-0.0047,-0.0067,-0.0099,-0.0166,-0.0215,-0.0283,-0.0335,-0.0294,-0.0324,-0.0365,-0.0351,-0.0376,-0.0436,-0.0503,-0.0533,-0.062,-0.0773,-0.0748,-0.0757,-0.0828,-0.0756,-0.0734,-0.0731,-0.079,-0.0792,-0.0793,-0.0794,0,-0.0077,-0.0105,-0.0122,-0.0201,-0.0248,-0.0261,-0.0292,-0.0277,-0.027,-0.0283,-0.026,-0.0347,-0.0378,-0.0431,-0.0479,-0.0521,-0.0574,-0.061,-0.0629,-0.0642,-0.0583,-0.0465,-0.0411,0,0,0,0,0,-0.0097,-0.0103,-0.016,-0.0207,-0.0246,-0.0269,-0.0278,-0.0282,-0.025,-0.0216,-0.023,-0.0263,-0.0324,-0.0363,-0.0387,-0.0453,-0.0593,-0.0482,-0.0646,-0.0729,-0.0742,-0.0693,0,0,0,0,0,0,-0.01,-0.0123,-0.0138,-0.0185,-0.0216,-0.0239,-0.0231,-0.0227,-0.0201,-0.0189,-0.0217,-0.0258,-0.032,-0.0309,-0.0386,-0.0404,-0.0505,-0.0527,-0.0527,-0.0722,-0.0734,-0.0744,-0.0698,0,0,0,0,0]}]]